Tracking 33485 objects as of 15-Mar-2026
HD Live streaming from Space Station
objects crossing your sky now

STARLINK-36642

Track STARLINK-36642 now!
10-day predictions
STARLINK-36642 is classified as:


NORAD ID: 67659
Int'l Code: 2026-022M
Perigee: 425.7 km
Apogee: 426.9 km
Inclination: 97.3 °
Period: 93.0 minutes
Semi major axis: 6797 km
RCS: Unknown
Launch date: February 2, 2026
Source: United States (US)
Launch site: AIR FORCE WESTERN TEST RANGE (AFWTR)
Your satellite tracking list
Your tracking list is empty




NASA's NSSDC Master Catalog

Two Line Element Set (TLE):
1 67659U 26022M   26074.25001157  .00018073  00000-0  33355-3 0  9996
2 67659  97.2842 108.3500 0000911  85.7269 300.0847 15.49159611  6024
Source of the keplerian elements: AFSPC